Probability
0 0 0 0 0 0 0 0 0 0 0 0 0 0 0 0 0 0 0 0 0 0 0 0 0 0 0 0 3 3 0 0 0 0 0 0 0 0 0 3 0 0 0 0
0 0 0 0 0 0 0 0 0 0 0 0 0 0 0 0 0 0 0 0 0 0 0 0 0 0 0 0 0 0 0 0 0 0 0 0 0 0 0 0 0 0 0 0
0 0 0 0 0 0 0 0 0 0 0 0 0 0 0 0 0 0 0 0 0 0 0 0 0 0 0 0 0 0 0 0 0 0 0 0 0 0 0 0 0 0 0 0
0 0 0 0 0 0 0 0 0 0 0 0 0 0 0 0 0 0 0 0 0 0 0 0 0 0 0 0 0 0 0 0 0 0 0 0 0 0 0 0 0 0 0 0
0 0 0 0 0 0 0 0 0 0 0 0 0 0 0 0 0 0 0 0 0 0 0 0 0 0 0 0 0 0 0 0 0 0 0 0 0 0 0 0 0 0 0 0
0 0 0 0 0 0 0 0 0 0 0 0 0 0 0 0 0 0 0 0 0 0 0 0 0 0 0 0 0 0 0 0 0 0 0 0 0 0 0 0 0 0 0 0
0 0 0 0 0 0 0 0 0 0 0 0 0 0 0 0 0 0 0 0 0 0 0 0 0 0 0 0 0 0 0 0 0 0 0 0 0 0 0 0 0 0 0 0
0 0 0 0 0 0 0 0 0 0 0 0 0 0 0 0 0 0 0 0 0 0 0 0 0 0 0 0 0 0 0 0 0 0 0 0 0 0 0 0 0 0 0 0
0 0 0 0 0 0 0 0 0 0 0 0 0 0 0 0 0 0 0 0 0 0 0 0 0 0 0 0 0 0 0 0 0 0 0 0 0 0 0 0 0 0 0 0
0 0 0 0 0 0 0 0 0 0 0 0 0 0 0 0 0 0 0 0 0 0 0 0 0 0 0 0 0 0 0 0 0 0 0 0 0 0 0 0 0 0 0 0
0 0 0 0 0 0 0 0 0 0 0 0 0 0 0 0 0 0 0 0 0 0 0 0 0 0 0 0 0 0 0 0 0 0 0 0 0 0 0 0 0 0 0 0
0 0 0 0 0 0 0 0 0 0 0 0 0 0 0 0 0 0 0 0 0 0 0 0 0 0 0 0 0 0 0 0 0 0 0 0 0 0 0 0 0 0 0 0
0 0 0 0 0 0 0 0 0 0 0 0 0 0 0 0 0 0 0 0 0 0 0 0 0 0 0 0 0 0 0 0 0 0 0 0 0 0 0 0 0 0 0 0
0 0 0 0 0 0 0 0 0 0 0 0 0 0 0 0 0 0 0 0 0 0 0 0 0 0 0 0 0 0 0 0 0 0 0 0 0 0 0 0 0 0 0 0
0 0 0 0 0 0 0 0 0 0 0 0 0 0 0 0 0 0 0 0 0 0 0 0 0 0 0 0 0 0 0 0 0 0 0 0 0 0 0 0 0 0 0 0
0 0 0 0 0 0 0 0 0 0 0 0 0 0 0 0 0 0 0 0 0 0 0 0 0 0 0 0 0 0 0 0 0 0 0 0 0 0 0 0 0 0 0 0
0 0 0 0 0 0 0 0 0 0 0 0 0 0 0 0 0 0 0 0 0 0 0 0 0 0 0 0 0 0 0 0 0 0 0 0 0 0 0 0 0 0 0 0
0 0 0 0 0 0 0 0 0 0 0 0 0 0 0 0 0 0 0 0 0 0 0 0 0 0 0 0 0 0 0 0 0 0 0 0 0 0 0 0 0 0 0 0
0 0 0 0 0 0 0 0 0 0 0 0 0 0 0 0 0 0 0 0 0 0 0 0 0 0 0 0 0 0 0 0 0 0 0 0 0 0 0 0 0 0 0 0
0 0 0 0 0 0 0 0 0 0 0 0 0 0 0 0 0 0 0 0 0 0 0 0 0 0 0 0 0 0 0 0 0 0 0 0 0 0 0 0 0 0 0 0
0 0 0 0 0 0 0 0 0 0 0 0 0 0 0 0 0 0 0 0 0 0 0 0 0 0 0 0 0 0 0 0 0 0 0 0 0 0 0 0 0 0 0 0
0 0 0 0 0 0 0 0 0 0 0 0 0 0 0 0 0 0 0 0 0 0 0 0 0 0 0 0 0 0 0 0 0 0 0 0 0 0 0 0 0 0 0 0
0 0 0 0 0 0 0 0 0 0 0 0 0 0 0 0 0 0 0 0 0 0 0 0 0 0 0 0 0 0 0 0 0 0 0 0 0 0 0 0 0 0 0 0
0 0 0 0 0 0 0 0 0 0 0 0 0 0 0 0 0 0 0 0 0 0 0 0 0 0 0 0 0 0 0 0 0 0 0 0 0 0 0 0 0 0 0 0
0 0 0 0 0 0 0 0 0 0 0 0 0 0 0 0 0 0 0 0 0 0 0 0 0 0 0 0 0 0 0 0 0 0 0 0 0 0 0 0 0 0 0 0
0 0 0 0 0 0 0 0 0 0 0 0 0 0 0 0 0 0 0 0 0 0 0 0 0 0 0 0 0 0 0 0 0 0 0 0 0 0 0 0 0 0 0 0
Height
5751 5750 5747 5744 5742 5740 5737 5735 5732 5730 5727 5725 5723 5722 5720 5718 5717 5716 5715 5714 5712 5712 5711 5710 5710 5710 5710 5711 5713 5714 5716 5717 5719 5720 5722 5723 5725 5726 5727 5728 5730 5731 5733 5734
5746 5743 5740 5737 5735 5732 5729 5727 5724 5722 5719 5716 5715 5713 5711 5709 5707 5705 5704 5702 5701 5700 5699 5698 5697 5696 5697 5697 5698 5700 5701 5703 5705 5706 5708 5710 5711 5713 5714 5715 5717 5719 5721 5722
5739 5737 5733 5731 5728 5725 5722 5719 5716 5713 5710 5707 5706 5704 5703 5700 5697 5695 5693 5691 5689 5688 5686 5685 5684 5683 5683 5683 5683 5685 5686 5688 5690 5692 5694 5696 5697 5699 5700 5702 5704 5706 5707 5710
5732 5729 5726 5723 5720 5717 5714 5711 5708 5705 5702 5699 5697 5694 5693 5690 5687 5684 5682 5680 5677 5676 5674 5672 5671 5670 5669 5668 5668 5670 5671 5673 5674 5676 5679 5681 5683 5685 5687 5688 5690 5692 5694 5696
5725 5722 5719 5716 5713 5709 5706 5703 5699 5696 5693 5690 5687 5684 5683 5679 5676 5674 5671 5668 5666 5664 5661 5660 5658 5657 5656 5655 5654 5655 5656 5658 5660 5662 5664 5666 5668 5670 5672 5674 5676 5677 5679 5681
5719 5715 5712 5708 5705 5701 5698 5695 5691 5687 5684 5681 5678 5674 5671 5668 5665 5662 5660 5657 5654 5651 5649 5647 5645 5644 5643 5642 5641 5641 5642 5644 5645 5647 5649 5651 5653 5655 5657 5659 5661 5663 5664 5666
5712 5708 5704 5701 5697 5694 5690 5687 5683 5678 5675 5672 5668 5664 5661 5658 5654 5651 5648 5645 5642 5639 5637 5635 5633 5631 5630 5629 5628 5627 5628 5630 5631 5632 5634 5635 5637 5640 5641 5644 5646 5647 5649 5651
5704 5701 5697 5693 5690 5686 5682 5679 5675 5670 5666 5662 5658 5654 5652 5647 5643 5640 5637 5634 5631 5628 5625 5623 5621 5619 5617 5616 5615 5614 5614 5615 5617 5618 5619 5620 5622 5624 5626 5628 5630 5632 5634 5636
5696 5693 5689 5685 5682 5678 5674 5671 5667 5662 5657 5653 5649 5645 5642 5637 5633 5629 5626 5623 5620 5617 5614 5611 5609 5606 5604 5603 5602 5601 5601 5602 5602 5603 5604 5606 5607 5609 5610 5612 5614 5616 5618 5620
5689 5685 5682 5678 5674 5671 5667 5662 5658 5653 5647 5643 5639 5636 5632 5627 5623 5619 5615 5612 5608 5606 5603 5599 5597 5594 5592 5590 5589 5588 5588 5588 5588 5589 5589 5590 5592 5594 5595 5597 5598 5600 5602 5604
5681 5678 5674 5670 5666 5662 5659 5654 5649 5644 5639 5634 5629 5628 5622 5616 5612 5608 5604 5600 5597 5594 5591 5588 5585 5582 5580 5578 5576 5575 5575 5575 5575 5575 5575 5575 5577 5578 5579 5581 5582 5583 5586 5588
5673 5670 5666 5663 5658 5654 5650 5646 5641 5637 5631 5625 5620 5620 5612 5607 5602 5598 5594 5590 5586 5583 5580 5577 5574 5571 5568 5566 5564 5562 5562 5561 5561 5560 5560 5561 5561 5562 5563 5565 5566 5568 5570 5572
5665 5662 5658 5654 5652 5647 5642 5637 5632 5627 5622 5616 5611 5610 5602 5597 5592 5588 5583 5579 5575 5572 5568 5565 5562 5559 5557 5554 5552 5550 5549 5548 5547 5547 5546 5546 5546 5547 5548 5549 5551 5552 5554 5556
5658 5654 5651 5647 5641 5637 5633 5629 5623 5618 5613 5608 5604 5599 5593 5587 5582 5578 5573 5569 5565 5561 5557 5554 5551 5548 5545 5543 5541 5539 5537 5536 5534 5533 5532 5532 5532 5532 5533 5534 5536 5537 5539 5540
5649 5646 5642 5638 5633 5629 5624 5620 5614 5609 5604 5599 5595 5589 5584 5578 5573 5568 5563 5559 5554 5551 5547 5544 5541 5538 5534 5532 5529 5527 5525 5524 5522 5521 5519 5518 5518 5518 5519 5520 5521 5522 5523 5525
5641 5637 5634 5630 5625 5620 5616 5611 5606 5600 5595 5589 5584 5580 5575 5569 5564 5559 5554 5549 5545 5540 5537 5533 5530 5526 5523 5521 5518 5516 5514 5512 5510 5509 5507 5505 5505 5505 5505 5505 5506 5507 5509 5511
5632 5628 5624 5621 5616 5611 5607 5603 5597 5591 5586 5581 5575 5572 5565 5560 5554 5549 5544 5540 5535 5530 5526 5523 5519 5516 5512 5509 5507 5504 5502 5500 5498 5496 5494 5493 5492 5491 5491 5492 5493 5494 5495 5496
5624 5619 5614 5610 5607 5602 5600 5593 5587 5582 5576 5571 5566 5561 5555 5550 5545 5540 5535 5530 5525 5521 5516 5512 5508 5505 5501 5498 5495 5493 5490 5488 5486 5484 5482 5480 5479 5478 5478 5478 5479 5480 5482 5483
5614 5610 5605 5601 5596 5592 5589 5583 5577 5571 5567 5562 5556 5551 5546 5541 5536 5531 5525 5520 5515 5511 5506 5502 5497 5494 5490 5487 5483 5481 5479 5476 5474 5471 5469 5467 5466 5466 5465 5465 5466 5467 5469 5470
5605 5601 5596 5591 5585 5581 5579 5573 5566 5562 5557 5552 5546 5541 5536 5531 5526 5522 5516 5511 5506 5501 5496 5491 5487 5483 5479 5475 5472 5470 5467 5464 5462 5460 5458 5456 5454 5454 5453 5453 5454 5454 5456 5457
5596 5591 5587 5581 5575 5572 5568 5562 5556 5553 5549 5542 5536 5531 5526 5521 5516 5512 5506 5501 5496 5491 5486 5481 5476 5472 5468 5464 5461 5458 5456 5453 5450 5448 5446 5445 5443 5442 5442 5442 5442 5442 5443 5445
5586 5581 5577 5572 5567 5565 5557 5552 5548 5543 5537 5531 5526 5522 5517 5512 5506 5501 5496 5491 5486 5481 5476 5471 5466 5462 5457 5454 5451 5448 5445 5442 5440 5438 5436 5434 5433 5432 5431 5431 5430 5431 5431 5433
5576 5572 5567 5563 5560 5553 5547 5542 5537 5532 5527 5522 5517 5512 5507 5502 5497 5492 5487 5482 5477 5471 5466 5461 5456 5452 5447 5443 5440 5437 5435 5432 5430 5427 5425 5424 5422 5421 5420 5420 5420 5420 5420 5421
5567 5562 5557 5553 5548 5543 5537 5532 5527 5522 5517 5512 5507 5503 5497 5492 5487 5482 5477 5472 5467 5462 5456 5451 5447 5442 5438 5434 5430 5427 5424 5422 5420 5417 5415 5414 5412 5411 5410 5410 5409 5409 5409 5410
5557 5552 5547 5543 5538 5533 5528 5522 5517 5512 5507 5502 5498 5493 5487 5482 5477 5472 5467 5462 5457 5452 5447 5442 5437 5433 5428 5424 5421 5418 5415 5413 5410 5408 5406 5404 5403 5402 5401 5400 5399 5399 5400 5400
5547 5543 5538 5534 5529 5523 5519 5513 5508 5503 5497 5492 5488 5483 5477 5472 5467 5462 5457 5452 5447 5442 5437 5432 5428 5424 5420 5416 5412 5409 5406 5403 5401 5399 5396 5394 5393 5392 5391 5390 5390 5389 5389 5390
Wind_Speed
23 23 24 24 25 26 27 28 29 29 29 30 30 31 32 34 35 36 37 38 39 40 41 42 44 45 45 47 48 48 49 49 50 50 49 49 49 49 48 48 47 47 46 46
24 24 25 26 26 27 28 29 30 30 30 31 31 32 33 34 36 37 38 39 40 41 42 42 44 45 46 47 49 49 50 51 52 52 52 52 51 50 50 50 49 50 50 49
24 25 26 27 28 29 29 30 30 31 31 32 33 33 33 34 36 37 38 39 40 41 41 42 43 44 46 48 50 51 52 52 53 53 53 53 53 53 53 52 51 51 51 51
25 26 27 28 29 30 30 31 31 31 32 33 33 35 34 35 36 37 38 39 39 41 42 42 43 44 45 47 49 51 52 53 53 54 54 54 54 54 54 53 53 53 54 53
26 27 28 28 29 30 31 31 32 32 33 34 34 36 36 36 36 37 37 39 39 40 41 41 42 43 44 46 48 49 51 52 53 54 55 55 55 54 55 55 54 55 55 55
27 28 29 30 30 31 31 32 33 33 34 35 35 37 37 37 37 37 37 38 39 40 40 41 41 42 43 45 47 48 50 51 52 53 54 55 55 55 55 55 55 55 55 56
28 29 29 30 30 31 31 32 33 35 35 36 36 37 38 38 38 38 38 37 38 38 39 40 41 42 43 44 46 48 49 50 51 53 55 55 56 56 56 57 56 56 56 56
29 29 29 30 30 31 32 32 32 34 36 37 36 37 38 37 37 38 38 37 37 37 38 39 40 41 42 43 45 46 48 49 51 53 55 55 56 56 56 56 56 56 56 56
29 29 30 30 30 31 32 32 32 34 36 37 37 37 37 37 37 37 37 37 37 38 38 39 40 41 42 43 44 45 46 48 49 51 54 55 55 56 56 57 57 57 56 56
29 30 30 30 31 31 32 32 33 34 36 38 38 38 38 37 37 37 37 37 38 38 39 39 40 41 42 42 43 44 45 46 48 50 52 54 54 55 55 56 57 57 56 55
30 31 31 31 31 32 32 33 34 35 36 37 39 39 38 38 38 38 38 38 38 38 38 39 40 41 42 42 42 43 44 45 47 49 50 51 53 54 55 56 56 56 56 57
30 31 32 32 33 33 33 34 35 36 37 37 39 39 38 38 38 38 38 38 38 39 39 40 40 40 41 41 42 42 43 44 45 47 48 50 51 52 53 54 56 56 55 55
30 31 32 33 33 34 34 34 35 36 37 37 38 39 38 37 38 38 38 38 38 38 39 39 39 39 40 40 41 41 42 43 43 45 46 48 50 51 51 52 53 54 55 55
31 31 32 33 34 34 35 35 35 36 37 38 38 38 38 38 37 37 38 38 38 38 38 38 39 39 39 40 40 40 41 42 42 43 45 47 48 50 51 52 52 52 53 53
32 32 33 33 34 34 35 35 36 36 37 38 38 38 37 37 37 37 37 37 38 37 37 38 38 39 39 39 39 39 40 41 41 41 43 44 46 47 49 51 51 51 51 52
33 34 34 34 34 35 35 35 36 37 37 38 38 37 37 37 37 37 37 37 37 37 37 37 38 39 39 39 39 39 39 40 40 40 41 42 43 45 47 49 50 50 49 50
34 35 35 35 35 36 36 37 37 37 37 37 37 37 37 37 38 38 37 37 37 37 37 37 38 38 39 39 39 40 40 40 40 40 40 41 41 43 45 47 48 48 48 47
35 36 36 37 37 37 38 38 38 38 37 37 37 37 38 38 37 37 37 36 36 37 37 37 38 38 38 39 40 41 41 40 40 40 41 41 41 42 44 45 45 46 46 46
35 36 37 38 38 39 38 38 39 39 37 37 37 38 38 38 37 37 38 37 37 37 38 38 38 38 38 38 39 40 40 40 40 40 39 39 40 40 41 42 43 43 44 44
36 37 37 38 39 40 39 39 39 39 38 38 38 37 38 38 38 37 37 37 37 37 38 38 38 38 38 37 38 38 38 39 39 38 37 38 38 38 38 39 40 41 42 43
36 37 37 38 39 39 39 39 39 38 38 38 37 37 38 38 38 38 37 37 37 37 37 38 38 37 37 37 37 37 37 37 36 35 35 35 36 36 36 36 37 38 39 40
36 37 38 38 39 39 39 39 39 38 38 38 38 38 38 38 38 37 37 37 37 37 38 38 38 37 37 37 36 36 35 34 34 33 33 34 34 34 34 35 35 36 37 37
36 37 38 38 38 39 39 39 39 38 38 38 38 37 38 38 38 38 37 37 38 38 37 37 37 36 36 36 35 34 34 34 33 33 33 32 33 33 33 33 33 34 35 35
36 37 38 38 38 39 39 38 38 38 38 38 38 38 38 38 39 38 38 38 38 37 37 36 36 35 35 34 34 33 32 32 32 32 32 32 32 32 32 32 32 32 33 34
37 38 38 38 38 38 38 38 38 38 38 39 39 39 39 39 39 39 38 38 37 37 36 36 35 34 33 32 32 31 31 31 31 31 31 31 31 31 31 31 31 31 31 32
37 38 38 38 38 37 37 38 38 38 39 39 39 39 39 39 38 38 37 37 36 36 35 35 34 33 32 31 31 30 30 30 30 30 31 31 31 30 31 31 31 31 31 31
Wind_Direction
293 293 292 292 292 291 291 290 288 286 285 282 280 279 278 276 275 274 273 272 271 270 269 268 265 263 262 260 258 257 256 256 256 256 256 257 256 256 256 255 254 254 254 254
295 295 294 293 292 292 292 291 290 288 286 283 282 281 279 278 277 276 276 274 273 272 272 270 268 265 263 261 259 257 256 256 255 255 256 256 256 256 256 255 254 254 254 255
296 298 297 295 294 294 292 292 291 290 288 285 284 282 281 280 280 279 278 277 275 274 273 271 269 267 265 262 259 257 256 256 255 255 255 255 255 256 256 255 254 254 255 255
297 298 298 297 295 295 294 293 292 291 290 288 286 285 284 283 282 282 281 279 277 276 274 272 270 269 267 264 261 259 257 256 255 255 255 255 255 256 256 256 255 255 255 255
298 298 298 298 297 296 296 295 294 293 292 290 289 288 287 286 285 284 283 282 280 278 276 274 271 270 269 267 263 260 257 256 255 255 254 254 254 255 256 256 256 255 256 256
298 299 299 299 298 298 297 296 295 294 293 292 292 291 290 289 288 287 285 283 282 279 278 275 274 272 270 269 266 261 258 257 256 255 255 254 254 255 255 256 256 255 256 256
299 300 300 300 300 300 300 299 299 298 297 296 296 293 292 292 291 289 286 284 283 281 279 276 275 274 272 270 268 263 259 258 257 256 255 255 254 254 256 256 256 255 256 256
301 301 301 301 302 302 302 301 301 301 301 300 298 296 296 294 293 291 288 286 284 282 280 278 277 275 273 272 269 265 261 259 258 257 256 256 255 255 256 256 256 256 255 256
302 301 301 301 302 303 303 302 302 301 301 302 301 299 297 296 295 292 289 287 285 283 281 280 279 277 275 273 270 267 264 261 260 259 257 256 256 256 256 256 256 257 256 256
301 301 302 302 302 303 304 304 304 304 304 304 304 303 302 301 297 294 291 288 286 285 283 282 281 278 277 275 272 269 266 264 263 262 260 258 257 257 257 257 257 257 257 256
301 302 302 302 303 304 304 304 304 304 304 304 304 305 305 303 300 297 293 290 288 286 285 284 283 281 279 277 274 271 268 266 266 264 262 261 259 258 258 257 257 257 257 256
302 303 304 303 304 304 304 305 305 305 305 304 304 305 305 303 301 298 295 292 290 287 286 285 284 283 281 279 276 273 270 268 269 267 264 262 260 258 258 258 257 257 258 257
304 305 306 305 305 306 305 306 306 305 304 304 304 305 305 302 302 300 297 294 292 289 287 286 285 284 282 280 277 274 271 270 271 269 266 263 261 258 258 259 258 258 257 257
302 304 305 306 306 307 307 307 307 306 305 304 304 304 304 303 302 301 299 297 294 290 289 287 286 284 283 281 279 276 273 273 273 272 268 265 263 260 259 259 259 258 257 257
302 303 304 304 304 305 307 308 307 306 305 304 305 304 305 303 303 302 300 298 296 292 290 289 288 286 283 282 280 277 275 275 275 273 271 268 265 263 261 260 260 260 259 259
303 303 304 304 303 304 305 308 307 306 305 305 304 304 305 304 303 303 302 300 297 294 291 290 289 287 284 282 281 278 277 277 277 275 274 271 268 265 263 261 261 260 260 259
303 303 304 304 304 304 304 307 307 306 306 305 305 305 305 305 305 304 303 302 299 295 292 291 290 289 286 284 282 279 278 279 279 277 276 273 270 267 265 263 262 260 259 258
302 303 304 305 305 305 307 307 307 306 305 305 305 306 306 306 306 305 304 302 300 297 294 292 291 290 287 286 283 281 280 280 280 279 277 275 271 269 267 265 263 260 258 257
302 304 305 306 306 305 306 308 307 307 305 305 305 305 306 306 305 304 304 303 301 299 297 294 292 291 289 287 285 283 281 281 281 279 277 275 273 271 269 266 263 261 259 258
302 303 304 305 306 307 308 307 307 306 305 305 305 305 306 306 306 304 303 303 302 301 300 297 295 293 291 289 287 284 283 282 281 279 277 276 274 272 269 266 264 262 260 258
303 302 303 304 305 306 307 308 308 307 307 306 306 305 306 306 307 306 304 303 303 302 301 299 297 295 293 292 289 286 285 283 281 279 278 276 276 274 270 267 265 262 260 259
303 303 303 304 305 306 307 307 307 306 306 306 306 306 306 306 307 306 305 305 304 303 302 300 299 297 294 292 290 288 285 283 282 280 279 277 275 274 272 269 266 263 260 258
303 302 303 304 304 305 305 306 306 305 305 305 305 306 306 306 306 305 305 305 305 304 303 302 300 298 296 294 291 289 287 284 283 281 280 278 276 275 274 271 268 266 262 258
303 302 302 303 304 304 304 305 305 304 303 304 304 304 305 305 305 305 305 305 305 304 303 302 301 299 298 295 293 291 289 287 285 283 280 278 276 275 273 271 269 267 264 259
304 303 304 304 304 304 304 304 304 304 303 303 303 304 304 304 305 305 305 305 305 305 304 302 300 299 297 296 295 291 290 288 287 284 281 279 276 273 272 270 269 267 264 261
303 303 304 305 305 304 304 304 304 304 304 303 304 304 304 304 304 305 305 305 305 306 305 304 301 299 298 297 296 295 293 290 289 286 283 280 277 273 271 268 266 266 264 260